Regional Weather Roundup
Issued by NWS

Home | Current Version | Previous Version | Graphics & Text | Print | Product List | Glossary On
Versions: 1 2 3 4 5 6 7 8 9 10 11 12 13 14 15 16 17 18 19 20 21 22 23 24 25 26 27 28 29 30 31 32 33 34 35 36 37 38 39 40 41 42 43 44 45 46 47 48 49 50
000
ASUS43 KDTX 230910
RWRMI
MICHIGAN HOURLY REGIONAL WEATHER ROUNDUP
NATIONAL WEATHER SERVICE DETROIT/PONTIAC MI
500 AM EDT SAT MAY 23 2015

NOTE: "FAIR" INDICATES FEW OR NO CLOUDS BELOW 12,000 FEET WITH NO
SIGNIFICANT WEATHER AND/OR OBSTRUCTION TO VISIBILITY.

MIZ047>049-052>055-059>063-066>070-074>076-081>083-231000-
SOUTHEAST LOWER MICHIGAN

CITY           SKY/WX    TMP DP  RH WIND       PRES   REMARKS
ADRIAN         PTCLDY    43  34  70 CALM      30.35R
ALMA           CLEAR     35  33  95 CALM      30.33S
ANN ARBOR      PTCLDY    33  30  88 CALM      30.34R
BAD AXE        CLEAR     32  23  68 CALM      30.34R
CARO           CLEAR     30  28  91 CALM      30.34R
DETROIT CITY   FAIR      40  29  64 CALM      30.36R
DETROIT        CLOUDY    44  32  62 N6        30.35R
FLINT          CLEAR     38  27  64 CALM      30.35R
GROSSE ILE     PTCLDY    46  32  57 CALM      30.34R
HILLSDALE      PTCLDY    43  37  78 E3        30.34R
HOWELL         CLEAR     39  28  64 CALM      30.34R

CITY           SKY/WX    TMP DP  RH WIND       PRES   REMARKS
JACKSON        PTCLDY    42  34  73 SE5       30.34R
LAMBERTVILLE   PTCLDY    43  36  75 CALM      30.35R
LANSING        PTCLDY    43  34  70 CALM      30.34R
LAPEER         FAIR      30  28  94 CALM      30.35R
MASON          PTCLDY    40  32  75 CALM      30.34R
MONROE         PTCLDY    43  36  75 CALM      30.34R
MT. CLEMENS    CLEAR     35  30  82 NW3       30.33R
PONTIAC        CLEAR     35  29  78 CALM      30.34R
PORT HOPE        N/A     39  23  52 S5        30.31S
PORT HURON     CLEAR     28  28 100 CALM      30.36R
TRI CITIES     CLEAR     40  28  62 S3        30.34S
MIDLAND        FAIR      32  32  99 CALM      30.33S
TROY           CLEAR     40  29  65 CALM      30.37R
SAGINAW HB     CLEAR     36  27  69 S5        30.34R WCI  32
$$
MIZ043>046-050>051-056>058-064>065-071>073-077>080-231000-
SOUTHWEST LOWER MICHIGAN

CITY           SKY/WX    TMP DP  RH WIND       PRES   REMARKS
BATTLE CREEK   PTCLDY    47  35  63 VRB5      30.34R
BENTON HARBOR  CLEAR     44  33  65 SE6       30.31R
BIG RAPIDS     CLEAR     35  32  87 CALM      30.31R
COLDWATER      PTCLDY    43  36  75 SE6       30.33R
FREMONT        FAIR      40  31  70 CALM      30.30R
HOLLAND        PTCLDY    45  33  63 S5        30.32R
GRAND RAPIDS   PTCLDY    41  34  76 S6        30.32R
IONIA          FAIR      40  33  77 S5        30.32R
KALAMAZOO      PTCLDY    42  34  73 CALM      30.33R
LUDINGTON      CLEAR     35  33  89 CALM      30.32R
MARSHALL       PTCLDY    45  37  73 CALM      30.33R
MOUNT PLEASANT CLEAR     36  34  95 CALM      30.32R
MUSKEGON       PTCLDY    42  34  73 CALM      30.31R
SOUTH HAVEN    PTCLDY    47  32  55 SE3       30.32R
$$
MIZ016>042-231000-
NORTHERN LOWER MICHIGAN

CITY           SKY/WX    TMP DP  RH WIND       PRES   REMARKS
ALPENA         CLEAR     29  26  89 CALM      30.30F
BEAVER ISLAND  CLEAR     33  27  79 CALM      30.26S
BELLAIRE       CLEAR     30  29  94 CALM      30.30R
CADILLAC       CLEAR     33  28  81 CALM      30.30R
CHARLEVOIX     CLEAR     40  29  64 SE5       30.30S
FRANKFORT      CLEAR     35  28  76 CALM      30.29S
GAYLORD        CLEAR     33  28  81 CALM      30.28S
HARBOR SPRINGS CLEAR     33  28  81 CALM      30.27S
HOUGHTON LAKE  CLEAR     31  29  92 CALM      30.31S
MANISTEE       CLEAR     32  27  80 E3        30.31S
OSCODA         CLEAR     32  28  84 CALM      30.31S
PELLSTON       CLEAR     26  24  92 CALM      30.27F
ROGERS CITY    CLEAR     36  27  70 S3        30.30S
TRAVERSE CITY  CLEAR     36  28  73 CALM      30.28S
$$
MIZ007>008-015-231000-
EASTERN UPPER MICHIGAN

CITY           SKY/WX    TMP DP  RH WIND       PRES   REMARKS
KINROSS        CLEAR     37  34  87 S5        30.26S WCI  34
MACKINAC ISLAN CLEAR     37  32  80 SW6       30.26S WCI  33
NEWBERRY       CLEAR     39  27  62 SW10      30.23S WCI  32
S. S. MARIE    CLEAR     31  26  82 E5        30.26S WCI  26
MUNISING         N/A     50  24  36 S14G22    30.21S
$$
MIZ004>006-011>014-085-231000-
CENTRAL UPPER MICHIGAN

CITY           SKY/WX    TMP DP  RH WIND       PRES   REMARKS
MANISTIQUE     CLEAR     42  35  76 SW8       30.25S
ESCANABA       CLEAR     36  28  75 W5        30.25S WCI  32
MENOMINEE      CLEAR     43  34  70 SW5       30.26S
SAWYER-GWINN   CLEAR     37  25  60 SW5       30.22S WCI  34
$$
MIZ001>003-009>011-084-231000-
WESTERN UPPER MICHIGAN

CITY           SKY/WX    TMP DP  RH WIND       PRES   REMARKS
IRON MOUNTAIN  CLEAR     33  29  85 CALM      30.23S
HOUGHTON       CLEAR     45  35  68 W3        30.15S
COPPER HARBOR    N/A     54  31  41 W15G26    30.10F
IRONWOOD       CLEAR     54  34  47 SW8       30.18S
$$

ABBREVIATIONS USED IN REMARKS
   TC - TEMPERATURE IN CELSIUS
  WCI - WIND CHILL INDEX
   HX - HEAT INDEX
  VSB - VISIBILITY




USA.gov is the U.S. government's official web portal to all federal, state and local government web resources and services.